Flag for Norfolk Island Weather past 2 weeks in Kingston, Norfolk Island

Now
64 °F

Partly cloudy.


Feels Like: 64 °F
Forecast: 60 / 64 °F
Wind: 26 mph from West

Location: Norfolk Island Airport

Current Time: Sep 4, 2015 at 7:53:45 PM

Latest Report: Sep 4, 2015 at 7:30 PM


Visibility: N/A

Pressure: 29.77 "Hg

Humidity: 73%

Dew point: 55 °F

Location of KingstonLocation

Historic Weather in Kingston — Graph

°F

Kingston temperature yesterday

Maximum temperature yesterday: 66 °F (at 10:30 AM)
Minimum temperature yesterday: 61 °F (at 2:30 AM)
Average temperature yesterday: 63 °F

Past Weeks' High & Low Weather Summary

 TemperatureHumidityPressure
High70 °F (Aug 26, 12:30 PM)100% (Aug 27, 5:30 AM)30.36 "Hg (Aug 27, 5:30 AM)
Low54 °F (Aug 24, 12:30 AM)45% (Aug 24, 1:30 PM)29.74 "Hg (Aug 31, 3:00 PM)
Average62 °F70%30.16 "Hg
* Reported Aug 20 6:30 PM — Sep 4 6:30 PM, Kingston, Weather by CustomWeather, © 2015

Note: Actual official high and low records may vary slightly from our data, if they occured in-between our weather recording intervals... More about our weather records

Advertising

Kingston weather history for previous 24 hours

 ConditionsComfort  
Time TempWeatherWind HumidityBarometerVisibility
6:30 PM
Fri, Sep 4
64 °FPassing clouds.29 mph68%29.74 "HgN/A
5:30 PM64 °FPassing clouds.23 mph64%29.74 "HgN/A
4:30 PM64 °FPartly sunny.23 mph78%29.74 "HgN/A
4:00 PM66 °FPartly sunny.18 mph78%29.74 "HgN/A
3:30 PM64 °FScattered clouds.21 mph73%29.74 "HgN/A
2:30 PM61 °FPartly sunny.18 mph72%29.74 "HgN/A
2:00 PM59 °FLight rain. Broken clouds.14 mph82%29.74 "HgN/A
1:25 PM59 °FLight rain. Broken clouds.22 mph82%29.77 "Hg5 mi
12:30 PM59 °FLight rain. Broken clouds.20 mph94%29.83 "Hg3 mi
11:30 AM59 °FSprinkles. Broken clouds.20 mph88%29.86 "Hg3 mi
10:30 AM68 °FPartly sunny.14 mph69%29.83 "HgN/A
10:00 AM68 °FOvercast.14 mph64%29.83 "HgN/A
9:30 AM68 °FPartly sunny.15 mph64%29.86 "HgN/A
8:30 AM68 °FBroken clouds.15 mph64%29.86 "HgN/A
8:00 AM66 °FScattered clouds.14 mph78%29.86 "HgN/A
7:30 AM66 °FScattered clouds.14 mph73%29.89 "HgN/A
7:00 AM66 °FBroken clouds.12 mph68%29.89 "HgN/A
6:30 AM64 °FScattered clouds.12 mph73%29.89 "HgN/A
5:30 AM64 °FPassing clouds.12 mph64%29.92 "HgN/A
5:00 AM64 °FClear.10 mph64%29.92 "HgN/A
4:30 AM64 °FPassing clouds.12 mph73%29.92 "HgN/A
4:00 AM64 °FPassing clouds.10 mph68%29.92 "HgN/A
3:30 AM64 °FPassing clouds.9 mph64%29.92 "HgN/A
2:30 AM63 °FPassing clouds.12 mph68%29.95 "HgN/A
2:00 AM63 °FClear.10 mph64%29.95 "HgN/A
1:30 AM63 °FPassing clouds.8 mph68%29.98 "HgN/A
1:00 AM61 °FClear.7 mph77%29.98 "HgN/A
12:30 AM61 °FClear.7 mph72%30.01 "HgN/A
12:00 AM63 °FPassing clouds.7 mph68%30.01 "HgN/A
11:30 PM
Thu, Sep 3
61 °FPassing clouds.5 mph72%30.04 "HgN/A
11:00 PM61 °FPassing clouds.5 mph72%30.04 "HgN/A
10:30 PM61 °FPassing clouds.6 mph72%30.04 "HgN/A
10:00 PM61 °FPassing clouds.6 mph72%30.04 "HgN/A
9:30 PM61 °FPassing clouds.3 mph72%30.04 "HgN/A
9:00 PM61 °FPassing clouds.5 mph72%30.07 "HgN/A
8:30 PM61 °FPassing clouds.3 mph72%30.07 "HgN/A
8:00 PM61 °FPassing clouds.5 mph72%30.07 "HgN/A
7:30 PM61 °FPassing clouds.3 mph72%30.04 "HgN/A
7:00 PM61 °FPassing clouds.3 mph72%30.07 "HgN/A
Weather by CustomWeather, © 2015

See weather overviewHow to use our weather pages